Home   Weather   Kaktovik   Past weeks
Flag for USA

Past Weather in Kaktovik, Alaska, USA — Yesterday and Last 2 Weeks

Now
26 °F

Chilly.


Feels Like: 9 °F
Forecast: 28 / 25 °F
Wind: 35 mph from East

Location: Barter Island

Current Time: Oct 19, 2019 at 1:37:35 am

Latest Report: Oct 19, 2019 at 12:52 am


Visibility: 10 mi

Pressure: 29.69 "Hg

Humidity: 84%

Dew Point: 22 °F

Location of KaktovikLocation

Past Weather in Kaktovik — Graph

°F

Kaktovik Temperature Yesterday

Maximum temperature yesterday: 29 °F (at 12:52 am)
Minimum temperature yesterday: 26 °F (at 9:52 pm)
Average temperature yesterday: 28 °F

High & Low Weather Summary for the Past Weeks

 TemperatureHumidityPressure
High40 °F (Oct 4, 6:52 pm)100% (Oct 10, 12:56 pm)30.12 "Hg (Oct 10, 12:56 pm)
Low13 °F (Oct 14, 4:52 am)62% (Oct 5, 2:52 pm)29.23 "Hg (Oct 4, 7:52 pm)
Average29 °F86%29.77 "Hg
* Reported Oct 3 11:52 pm — Oct 18 11:52 pm, Kaktovik. Weather by CustomWeather, © 2019

Note: Actual official high and low records may vary slightly from our data, if they occured in-between our weather recording intervals... More about our weather records

Advertising

Kaktovik Weather History for the Previous 24 Hours

Scroll right to see more
 ConditionsComfort  
Time TempWeatherWind HumidityBarometerVisibility
11:52 pm
Fri, Oct 18
26 °FChilly.33 mph84%29.70 "Hg10 mi
10:52 pm26 °FChilly.36 mph84%29.69 "Hg10 mi
9:52 pm26 °FChilly.35 mph84%29.68 "Hg10 mi
8:52 pm27 °FChilly.32 mph81%29.69 "Hg10 mi
7:52 pm28 °FChilly.32 mph85%29.68 "Hg10 mi
6:52 pm29 °FChilly.35 mph82%29.67 "Hg10 mi
5:52 pm28 °FChilly.30 mph89%29.67 "Hg10 mi
4:52 pm28 °FChilly.31 mph85%29.67 "Hg10 mi
2:52 pm27 °FChilly.35 mph85%29.65 "Hg10 mi
1:52 pm28 °FChilly.33 mph81%29.64 "Hg10 mi
12:52 pm28 °FChilly.33 mph81%29.63 "Hg10 mi
11:52 am27 °FChilly.36 mph85%29.62 "Hg10 mi
10:52 am27 °FChilly.39 mph85%29.60 "Hg10 mi
9:52 am28 °FChilly.41 mph85%29.58 "Hg10 mi
8:52 am27 °FChilly.35 mph89%29.59 "Hg10 mi
7:52 am27 °FChilly.39 mph89%29.58 "Hg10 mi
6:52 am28 °FChilly.39 mph89%29.57 "Hg10 mi
5:52 am28 °FChilly.41 mph93%29.56 "Hg10 mi
4:52 am29 °FChilly.38 mph89%29.56 "Hg10 mi
3:52 am29 °FChilly.43 mph89%29.54 "Hg10 mi
2:52 am29 °FChilly.38 mph89%29.54 "Hg10 mi
1:52 am29 °FChilly.33 mph89%29.55 "Hg10 mi
Weather by CustomWeather, © 2019

See weather overview